Weather Roundup
Issued by NWS

Home | Current Version | Previous Version | Graphics & Text | Print | Product List | Glossary On
Versions: 1 2 3 4 5 6 7 8 9 10 11 12 13 14 15 16 17 18 19 20 21 22 23 24 25 26 27 28 29 30 31 32 33 34 35 36 37 38 39 40 41 42 43 44 45 46 47 48 49 50
000
NZUS93 KARX 042210
HRRWXR

CURRENT HOURLY OBSERVATIONS ACROSS
MUCH OF THE UPPER MISSISSIPPI VALLEY
NATIONAL WEATHER SERVICE LA CROSSE WI
500 PM CDT SAT JUL 04 2015


...SOUTHEAST MINNESOTA...


CITY           SKY/WX    TMP DP  RH WIND       PRES   REMARKS
ROCHESTER      MOSUNNY   81  64  56 SW9       29.98R
ROCHESTER/MAYO FAIR      80  61  52 SW6       29.96S
WINONA         MOSUNNY   81  63  54 SW3       29.94F
AUSTIN         MOSUNNY   82  61  47 SW6       29.97S
ALBERT LEA     MOSUNNY   81  61  50 SW5       29.97S
DODGE CENTER   MOSUNNY   81  64  57 S9        29.97S
PRESTON        MOSUNNY   78  62  57 SW7       29.99S
OWATONNA       SUNNY     82  61  47 SW9       29.96S
FARIBAULT      SUNNY     82  64  54 S8        29.95S
$$

...ELSEWHERE IN MINNESOTA...


CITY           SKY/WX    TMP DP  RH WIND       PRES   REMARKS
MINNEAPOLIS    MOSUNNY   84  62  47 S10       29.91F HAZE
INTNL FALLS    SUNNY     80  58  46 SW9G18    29.85F
DULUTH         SUNNY     73  58  59 SE12      29.94F
RED WING       MOSUNNY   84  63  48 S6        29.92S HAZE
REDWOOD FALLS  MOSUNNY   84  63  49 S15       29.89F
MANKATO        SUNNY     81  63  54 S9        29.94S
WORTHINGTON    MOSUNNY   81  61  50 S14       29.94S
FAIRMONT       MOSUNNY   81  61  50 S10       29.94S
$$

...SOUTHWEST WISCONSIN...


CITY           SKY/WX    TMP DP  RH WIND       PRES   REMARKS
LA CROSSE      MOSUNNY   83  63  50 SW13      29.95S
PRAIRIE DU CHI SUNNY     80  59  49 SW7       29.97S
BOSCOBEL       SUNNY     83  61  47 W6        29.98S
LONE ROCK      SUNNY     81  59  47 SW7       29.98S
PLATTEVILLE    SUNNY     80  59  49 W7        30.00S
FORT MC COY    SUNNY     83  59  44 SW7       29.97S
CAMP DOUGLAS   SUNNY     82  67  60 SW8       29.96S
VIROQUA        FAIR      79  62  56 SW8       30.00S
WIS DELLS      MOSUNNY   80  59  48 SW7       29.98S
$$

...ELSEWHERE IN WISCONSIN...


CITY           SKY/WX    TMP DP  RH WIND       PRES   REMARKS
MILWAUKEE      MOSUNNY   77  61  57 SE12      29.98S
MADISON        MOSUNNY   81  60  48 W6        29.98S
GREEN BAY      MOSUNNY   80  66  62 E8        29.97S
EAU CLAIRE     PTSUNNY   83  64  52 SW7       29.93F HAZE
BLACK RVR FLS  FAIR      83  59  43 SW6       29.95S
MEDFORD        MOSUNNY   80  58  46 SW7       29.97F
WAUSAU         MOSUNNY   82  55  39 SW8       29.96R HAZE
WIS RAPIDS     SUNNY     82  61  48 SW8       29.97F
MARSHFIELD     MOSUNNY   82  62  50 S6        29.96F HAZE
RICE LAKE      SUNNY     82  59  46 S6        29.95F HAZE
$$

...NORTHEAST IOWA...


CITY           SKY/WX    TMP DP  RH WIND       PRES   REMARKS
DECORAH          N/A    N/A N/A N/A MISG        N/A
MASON CITY     SUNNY     81  58  45 S9        29.98F
CHARLES CITY   SUNNY     79  63  57 S9        29.99S
OELWEIN        SUNNY     79  61  53 SW7       30.00S
$$

...ELSEWHERE IN IOWA...


CITY           SKY/WX    TMP DP  RH WIND       PRES   REMARKS
DES MOINES     PTSUNNY   82  58  43 S8        29.96F
IOWA CITY      SUNNY     80  61  52 VRB3      29.99F
FORT DODGE     MOSUNNY   81  59  47 SW9       29.98S
$$

...NORTHERN ILLINOIS...


CITY           SKY/WX    TMP DP  RH WIND       PRES   REMARKS
CHICAGO-OHARE  MOSUNNY   80  55  42 W7        29.99S
CHICAGO-MIDWAY MOSUNNY   82  57  42 SW9       29.99S
MOLINE         SUNNY     79  60  52 S7        29.99F
ROCKFORD       MOSUNNY   80  60  50 W7        30.01S
PEORIA         SUNNY     82  57  42 VRB3      30.00F
$$

NOTE: "FAIR" INDICATES FEW OR NO CLOUDS BELOW 12,000 FEET WITH NO
SIGNIFICANT WEATHER AND/OR OBSTRUCTIONS TO VISIBILITY. WIND
SPEEDS ARE IN MILES-PER-HOUR.



USA.gov is the U.S. government's official web portal to all federal, state and local government web resources and services.